Location: Unspecified
(0.0000°N, 0.0000°E)
Time: 07:31:58
(UTC+00:00)

Vanguard 2 Rocket - Pass Details

Date: 15 October 2022
Orbit: 555 x 3321 km, 32.9° (Epoch: 06 December)

Event Time Altitude Azimuth Distance (km) Brightness Sun altitude
Rises 03:24:36 0° 305° (NW) 4,685 - -34.9°
Reaches altitude 10° 03:28:24 10° 305° (NW) 3,265 - -33.9°
Maximum altitude 03:35:51 88° 215° (SW) 844 - -32.1°
Exits shadow 03:37:21 48° 127° (SE) 1,002 7.3 -31.7°
Drops below altitude 10° 03:40:27 10° 126° (SE) 2,062 9.5 -31.0°
Sets 03:42:23 0° 125° (SE) 2,849 10.4 -30.5°
